AAL2014 KCLT-KRIC

Flight info

Callsign AAL2014
Flight time 0h 40m
Altitude 29000
Route BARMY5 RDU NEAVL DUCXS5
Aircraft B738/M-SDE2E3FGHIRWXY/LB1

Departure

Time 2026-05-03 20:15
Airport Charlotte Douglas International Airport (KCLT)

Arrival

Time 2026-05-03 20:55
Airport Richmond International Airport (KRIC)
Time Latitude Longitude Altitude Speed Heading
2026-05-03 20:15 35.25172 -80.93287 2878 ft 206 kts 29°
2026-05-03 20:15 35.26162 -80.91925 3214 ft 228 kts 66°
2026-05-03 20:15 35.26351 -80.89937 3631 ft 244 kts 96°
2026-05-03 20:15 35.26029 -80.87870 4307 ft 254 kts 102°
2026-05-03 20:16 35.25643 -80.85706 4891 ft 266 kts 99°
2026-05-03 20:16 35.25423 -80.83433 5606 ft 274 kts 94°
2026-05-03 20:16 35.25314 -80.81080 6318 ft 280 kts 92°
2026-05-03 20:16 35.25231 -80.78695 7139 ft 280 kts 91°
2026-05-03 20:17 35.25167 -80.76327 8072 ft 277 kts 90°
2026-05-03 20:17 35.25112 -80.73947 8753 ft 285 kts 90°
2026-05-03 20:17 35.25062 -80.71464 9298 ft 296 kts 90°
2026-05-03 20:17 35.25062 -80.68945 10098 ft 296 kts 87°
2026-05-03 20:18 35.25117 -80.66379 10594 ft 311 kts 87°
2026-05-03 20:18 35.25150 -80.63627 10756 ft 336 kts 88°
2026-05-03 20:18 35.25174 -80.60672 10933 ft 358 kts 88°
2026-05-03 20:18 35.25188 -80.57545 11184 ft 377 kts 88°
2026-05-03 20:19 35.25197 -80.54296 11742 ft 384 kts 88°
2026-05-03 20:19 35.25201 -80.51013 12354 ft 389 kts 88°
2026-05-03 20:19 35.25206 -80.47671 12954 ft 396 kts 88°
2026-05-03 20:19 35.25389 -80.44296 13590 ft 399 kts 80°
2026-05-03 20:20 35.25826 -80.40930 14275 ft 403 kts 77°
2026-05-03 20:20 35.26316 -80.37539 14892 ft 409 kts 77°
2026-05-03 20:20 35.26815 -80.34077 15515 ft 415 kts 77°
2026-05-03 20:20 35.27304 -80.30570 16166 ft 419 kts 78°
2026-05-03 20:21 35.27780 -80.27032 16787 ft 425 kts 78°
2026-05-03 20:21 35.28247 -80.23488 17367 ft 430 kts 78°
2026-05-03 20:21 35.28720 -80.19854 17933 ft 435 kts 78°
2026-05-03 20:21 35.29204 -80.16126 18509 ft 440 kts 78°
2026-05-03 20:22 35.29686 -80.12408 19073 ft 445 kts 78°
2026-05-03 20:22 35.30285 -80.08725 19558 ft 448 kts 70°
2026-05-03 20:22 35.31285 -80.05117 20078 ft 450 kts 65°
2026-05-03 20:22 35.32382 -80.01512 20624 ft 453 kts 65°
2026-05-03 20:23 35.33486 -79.97889 21123 ft 458 kts 65°
2026-05-03 20:23 35.34590 -79.94202 21541 ft 464 kts 66°
2026-05-03 20:23 35.35692 -79.90459 21980 ft 469 kts 66°
2026-05-03 20:23 35.36792 -79.86676 22461 ft 473 kts 66°
2026-05-03 20:24 35.37896 -79.82868 22918 ft 477 kts 66°
2026-05-03 20:24 35.39012 -79.79026 23323 ft 481 kts 66°
2026-05-03 20:24 35.40142 -79.75143 23715 ft 485 kts 66°
2026-05-03 20:24 35.41280 -79.71229 24110 ft 490 kts 66°
2026-05-03 20:25 35.42427 -79.67281 24501 ft 494 kts 66°
2026-05-03 20:25 35.43579 -79.63299 24879 ft 497 kts 66°
2026-05-03 20:25 35.44738 -79.59285 25237 ft 501 kts 66°
2026-05-03 20:25 35.45904 -79.55243 25589 ft 505 kts 66°
2026-05-03 20:26 35.47079 -79.51162 25919 ft 509 kts 66°
2026-05-03 20:26 35.48261 -79.47057 26236 ft 513 kts 66°
2026-05-03 20:26 35.49448 -79.42922 26602 ft 515 kts 67°
2026-05-03 20:26 35.50639 -79.38772 26944 ft 518 kts 67°
2026-05-03 20:27 35.51839 -79.34582 27127 ft 523 kts 67°
2026-05-03 20:27 35.53052 -79.30343 27102 ft 530 kts 67°
2026-05-03 20:27 35.54273 -79.26065 27106 ft 533 kts 67°
2026-05-03 20:27 35.55497 -79.21767 27095 ft 532 kts 67°
2026-05-03 20:28 35.56713 -79.17492 27096 ft 529 kts 67°
2026-05-03 20:28 35.58044 -79.13298 27090 ft 524 kts 60°
2026-05-03 20:28 35.59825 -79.09443 27110 ft 515 kts 50°
2026-05-03 20:28 35.61967 -79.05944 27117 ft 510 kts 43°
2026-05-03 20:29 35.64443 -79.02854 27108 ft 505 kts 33°
2026-05-03 20:29 35.67108 -79.00028 27114 ft 507 kts 33°
2026-05-03 20:29 35.69799 -78.97208 27089 ft 508 kts 33°
2026-05-03 20:29 35.72480 -78.94374 27097 ft 509 kts 33°
2026-05-03 20:30 35.75154 -78.91512 27096 ft 509 kts 33°
2026-05-03 20:30 35.77814 -78.88634 27116 ft 510 kts 33°
2026-05-03 20:30 35.80476 -78.85736 27107 ft 510 kts 34°
2026-05-03 20:30 35.83132 -78.82841 27107 ft 510 kts 34°
2026-05-03 20:31 35.85792 -78.79944 27119 ft 509 kts 33°
2026-05-03 20:31 35.88465 -78.77101 27109 ft 507 kts 31°
2026-05-03 20:31 35.91234 -78.74434 27108 ft 503 kts 28°
2026-05-03 20:31 35.94053 -78.71882 27118 ft 502 kts 27°
2026-05-03 20:32 35.96889 -78.69377 27109 ft 501 kts 27°
2026-05-03 20:32 35.99729 -78.66871 27116 ft 501 kts 27°
2026-05-03 20:32 36.02519 -78.64385 27115 ft 502 kts 27°
2026-05-03 20:32 36.05339 -78.61842 27121 ft 501 kts 27°
2026-05-03 20:33 36.08144 -78.59286 27099 ft 500 kts 28°
2026-05-03 20:33 36.10934 -78.56729 27104 ft 499 kts 28°
2026-05-03 20:33 36.13725 -78.54164 27109 ft 499 kts 28°
2026-05-03 20:33 36.16513 -78.51599 27105 ft 499 kts 28°
2026-05-03 20:34 36.19296 -78.49039 27110 ft 499 kts 28°
2026-05-03 20:34 36.22076 -78.46480 27101 ft 497 kts 28°
2026-05-03 20:34 36.23914 -78.44786 27055 ft 497 kts 28°
2026-05-03 20:34 36.26705 -78.42214 26234 ft 502 kts 28°
2026-05-03 20:35 36.29486 -78.39647 25616 ft 495 kts 28°
2026-05-03 20:35 36.32229 -78.37108 24976 ft 489 kts 28°
2026-05-03 20:35 36.34938 -78.34600 24344 ft 483 kts 28°
2026-05-03 20:35 36.37610 -78.32125 23726 ft 477 kts 28°
2026-05-03 20:36 36.40252 -78.29679 23097 ft 471 kts 28°
2026-05-03 20:36 36.42863 -78.27259 22469 ft 465 kts 29°
2026-05-03 20:36 36.45438 -78.24873 21857 ft 460 kts 29°
2026-05-03 20:36 36.47989 -78.22508 21239 ft 455 kts 29°
2026-05-03 20:37 36.50504 -78.20173 20613 ft 449 kts 29°
2026-05-03 20:37 36.52999 -78.17855 19991 ft 444 kts 29°
2026-05-03 20:37 36.55461 -78.15565 19385 ft 439 kts 29°
2026-05-03 20:37 36.57890 -78.13304 18793 ft 433 kts 30°
2026-05-03 20:38 36.60285 -78.11073 18224 ft 427 kts 30°
2026-05-03 20:38 36.62648 -78.08869 17628 ft 422 kts 30°
2026-05-03 20:38 36.64980 -78.06693 17036 ft 417 kts 30°
2026-05-03 20:38 36.67290 -78.04538 16450 ft 412 kts 30°
2026-05-03 20:39 36.69570 -78.02408 15883 ft 407 kts 30°
2026-05-03 20:39 36.71819 -78.00306 15325 ft 402 kts 30°
2026-05-03 20:39 36.74043 -77.98225 14765 ft 397 kts 31°
2026-05-03 20:39 36.76242 -77.96169 14207 ft 393 kts 31°
2026-05-03 20:40 36.78415 -77.94132 13659 ft 389 kts 31°
2026-05-03 20:40 36.80568 -77.92113 13109 ft 385 kts 31°
2026-05-03 20:40 36.82700 -77.90111 12567 ft 381 kts 31°
2026-05-03 20:40 36.84812 -77.88127 12017 ft 378 kts 31°
2026-05-03 20:41 36.86881 -77.86179 11814 ft 366 kts 31°
2026-05-03 20:41 36.88881 -77.84292 11640 ft 353 kts 31°
2026-05-03 20:41 36.90811 -77.82472 11487 ft 342 kts 31°
2026-05-03 20:41 36.92680 -77.80715 11336 ft 331 kts 31°
2026-05-03 20:42 36.94490 -77.79011 11198 ft 321 kts 31°
2026-05-03 20:42 36.96249 -77.77354 11068 ft 312 kts 31°
2026-05-03 20:42 36.97954 -77.75747 10915 ft 303 kts 30°
2026-05-03 20:42 36.99689 -77.74331 10690 ft 295 kts 25°
2026-05-03 20:43 37.01442 -77.73050 10483 ft 288 kts 24°
2026-05-03 20:43 37.03173 -77.71805 10265 ft 286 kts 24°
2026-05-03 20:43 37.04891 -77.70575 9987 ft 283 kts 25°
2026-05-03 20:43 37.06567 -77.69339 9827 ft 277 kts 26°
2026-05-03 20:44 37.08093 -77.67936 9574 ft 281 kts 46°
2026-05-03 20:44 37.09123 -77.65829 9236 ft 286 kts 59°
2026-05-03 20:44 37.10030 -77.63599 8938 ft 287 kts 59°
2026-05-03 20:44 37.10928 -77.61379 8670 ft 285 kts 60°
2026-05-03 20:45 37.11827 -77.59184 8419 ft 282 kts 59°
2026-05-03 20:45 37.12731 -77.57011 8158 ft 280 kts 59°
2026-05-03 20:45 37.13631 -77.54861 7903 ft 277 kts 58°
2026-05-03 20:45 37.14530 -77.52736 7655 ft 275 kts 58°
2026-05-03 20:46 37.15426 -77.50631 7415 ft 272 kts 58°
2026-05-03 20:46 37.16312 -77.48556 7180 ft 270 kts 58°
2026-05-03 20:46 37.17198 -77.46482 6942 ft 269 kts 58°
2026-05-03 20:46 37.18078 -77.44419 6696 ft 268 kts 58°
2026-05-03 20:47 37.18955 -77.42368 6453 ft 266 kts 58°
2026-05-03 20:47 37.19827 -77.40322 6235 ft 266 kts 58°
2026-05-03 20:47 37.20701 -77.38278 5991 ft 266 kts 58°
2026-05-03 20:47 37.21577 -77.36233 5750 ft 266 kts 58°
2026-05-03 20:48 37.22453 -77.34181 5503 ft 267 kts 58°
2026-05-03 20:48 37.23325 -77.32137 5274 ft 265 kts 58°
2026-05-03 20:48 37.24195 -77.30097 5015 ft 265 kts 58°
2026-05-03 20:48 37.25064 -77.28062 4791 ft 264 kts 58°
2026-05-03 20:49 37.25926 -77.26030 4554 ft 264 kts 58°
2026-05-03 20:49 37.26788 -77.24003 4317 ft 262 kts 58°
2026-05-03 20:49 37.27645 -77.21992 4067 ft 261 kts 58°
2026-05-03 20:49 37.28495 -77.19994 3832 ft 258 kts 58°
2026-05-03 20:50 37.29542 -77.18226 3588 ft 249 kts 33°
2026-05-03 20:50 37.31065 -77.17389 3395 ft 236 kts
2026-05-03 20:50 37.32652 -77.17524 3184 ft 227 kts 337°
2026-05-03 20:50 37.34035 -77.18368 3119 ft 215 kts 332°
2026-05-03 20:51 37.35306 -77.19238 3007 ft 201 kts 328°
2026-05-03 20:51 37.36459 -77.20128 2924 ft 189 kts 326°
2026-05-03 20:51 37.37519 -77.20978 2844 ft 178 kts 326°
2026-05-03 20:51 37.38547 -77.21806 2694 ft 170 kts 326°
2026-05-03 20:52 37.39513 -77.22585 2490 ft 164 kts 325°
2026-05-03 20:52 37.40474 -77.23359 2281 ft 166 kts 325°
2026-05-03 20:52 37.41450 -77.24147 2056 ft 167 kts 325°
2026-05-03 20:52 37.42423 -77.24929 1823 ft 163 kts 324°
2026-05-03 20:53 37.43345 -77.25670 1644 ft 153 kts 324°
2026-05-03 20:53 37.44223 -77.26377 1470 ft 145 kts 324°
2026-05-03 20:53 37.45077 -77.27063 1223 ft 144 kts 323°
2026-05-03 20:53 37.45910 -77.27746 1079 ft 144 kts 323°
2026-05-03 20:54 37.46749 -77.28434 875 ft 143 kts 324°
2026-05-03 20:54 37.48436 -77.29786 502 ft 146 kts 325°
2026-05-03 20:54 37.49319 -77.30485 258 ft 150 kts 325°
2026-05-03 20:55 37.50153 -77.31157 165 ft 128 kts 327°
2026-05-03 20:55 37.50721 -77.31597 169 ft 64 kts 327°
2026-05-03 20:55 37.50907 -77.31750 168 ft 0 kts 327°
2026-05-03 20:55 37.50916 -77.31763 168 ft 7 kts 302°
2026-05-03 20:56 37.50894 -77.31812 167 ft 8 kts 214°
2026-05-03 20:56 37.50881 -77.31890 167 ft 12 kts 289°
2026-05-03 20:56 37.50912 -77.31988 167 ft 12 kts 289°
2026-05-03 20:56 37.50933 -77.32088 168 ft 12 kts 284°
2026-05-03 20:57 37.50948 -77.32187 169 ft 11 kts 277°
2026-05-03 20:57 37.50958 -77.32285 169 ft 11 kts 276°
2026-05-03 20:57 37.50968 -77.32379 168 ft 11 kts 278°
2026-05-03 20:57 37.50977 -77.32471 168 ft 10 kts 276°
2026-05-03 20:58 37.50985 -77.32561 170 ft 10 kts 276°
2026-05-03 20:58 37.50986 -77.32648 170 ft 10 kts 263°
2026-05-03 20:58 37.50976 -77.32732 169 ft 10 kts 254°
2026-05-03 20:58 37.50931 -77.32790 169 ft 10 kts 204°
2026-05-03 20:59 37.50868 -77.32814 171 ft 9 kts 192°
2026-05-03 20:59 37.50799 -77.32832 172 ft 11 kts 192°
2026-05-03 20:59 37.50724 -77.32854 171 ft 12 kts 194°
2026-05-03 20:59 37.50634 -77.32882 170 ft 15 kts 193°
2026-05-03 21:00 37.50537 -77.32910 170 ft 13 kts 192°
2026-05-03 21:00 37.50488 -77.32948 170 ft 12 kts 236°
2026-05-03 21:00 37.50448 -77.33073 169 ft 11 kts 269°
2026-05-03 21:00 37.50461 -77.33167 169 ft 10 kts 281°
2026-05-03 21:01 37.50495 -77.33236 169 ft 9 kts 324°
2026-05-03 21:01 37.50545 -77.33276 169 ft 8 kts 358°
2026-05-03 21:01 37.50562 -77.33239 169 ft 4 kts 92°
2026-05-03 21:01 37.50561 -77.33211 170 ft 2 kts 91°
2026-05-03 21:02 37.50561 -77.33206 170 ft 0 kts 90°
2026-05-03 21:02 37.50561 -77.33204 170 ft 1 kts 90°
2026-05-03 21:02 37.50561 -77.33201 170 ft 0 kts 91°